Location: Bailleul
(50.3375°N, 2.8513°E)
Time: 02:36:58
(UTC+00:00)

SL-16 R/B - Visible Passes

Search period start: 23 October 2021 00:00
Search period end: 02 November 2021 00:00
Orbit: 842 x 846 km, 71.0° (Epoch: 22 October)

Date Brightness Start Highest point End Pass type
(mag) Time Alt. Az. Time Alt. Az. Time Alt. Az.
23 Oct 4.9 01:36:48 11° E 01:36:48 11° E 01:37:11 10° E visible
23 Oct 2.4 03:18:48 66° ESE 03:18:48 66° ESE 03:23:44 10° SE visible
23 Oct 3.3 05:00:49 20° W 05:01:32 21° W 05:05:35 10° SSW visible
23 Oct 2.2 18:08:38 10° SSW 18:14:14 64° ESE 18:19:52 10° NE visible
23 Oct 3.9 19:53:50 10° WSW 19:58:47 30° NW 20:03:21 12° NNE visible
23 Oct 5.0 21:43:12 10° NW 21:44:55 11° NNW 21:45:13 11° NNW visible
24 Oct 3.7 03:06:59 27° SE 03:06:59 27° SE 03:09:24 10° SE visible
24 Oct 3.6 04:49:00 18° SW 04:49:00 18° SW 04:51:23 10° SSW visible
24 Oct 2.2 17:54:20 10° SSW 17:59:54 62° ESE 18:05:32 10° NE visible
24 Oct 3.9 19:39:26 10° WSW 19:44:26 31° NW 19:49:27 10° NNE visible
24 Oct 5.0 21:28:42 10° NW 21:30:32 11° NNW 21:31:22 11° N visible
25 Oct 4.3 04:37:04 10° SSW 04:37:04 10° SSW 04:37:09 10° SSW visible
25 Oct 2.3 17:40:02 10° SSW 17:45:35 60° ESE 17:51:11 10° NE visible
25 Oct 3.8 19:25:03 10° WSW 19:30:05 31° NW 19:35:08 10° NNE visible
25 Oct 5.0 21:14:13 10° NW 21:16:09 12° NNW 21:17:27 11° N visible
26 Oct 2.3 17:25:44 10° S 17:31:16 58° ESE 17:36:51 10° NE visible
26 Oct 3.8 19:10:40 10° WSW 19:15:43 32° NW 19:20:49 10° NNE visible
26 Oct 4.9 20:59:44 10° NW 21:01:46 12° NNW 21:03:29 11° N visible
27 Oct 2.4 17:11:26 10° S 17:16:57 56° ESE 17:22:30 10° NE visible
27 Oct 3.8 18:56:17 10° WSW 19:01:22 33° NW 19:06:29 10° NNE visible
27 Oct 4.9 20:45:15 10° NW 20:47:24 12° NNW 20:49:28 10° N visible
28 Oct 2.4 16:57:08 10° S 17:02:38 54° ESE 17:08:10 10° NE visible
28 Oct 3.7 18:41:53 10° WSW 18:47:01 34° NW 18:52:11 10° NNE visible
28 Oct 4.9 20:30:47 10° NW 20:33:00 12° NNW 20:35:14 10° N visible
29 Oct 3.7 18:27:31 10° WSW 18:32:40 35° NW 18:37:51 10° NNE visible
29 Oct 4.8 20:16:19 10° NW 20:18:37 12° NNW 20:20:57 10° N visible
30 Oct 3.6 18:13:07 10° WSW 18:18:19 36° NW 18:23:32 10° NNE visible
30 Oct 4.8 20:01:51 10° NW 20:04:15 13° NNW 20:06:38 10° N visible
31 Oct 3.6 17:58:44 10° WSW 18:03:58 37° NW 18:09:13 10° NNE visible
31 Oct 4.8 19:47:23 10° NW 19:49:52 13° NNW 19:52:21 10° N visible
01 Nov 3.5 17:44:21 10° WSW 17:49:37 38° NW 17:54:54 10° NNE visible
01 Nov 4.7 19:32:55 10° NW 19:35:29 13° NNW 19:38:03 10° N visible
